Location: Newark
(48.6461°N, 4.3644°W)
Time: 11:16:44
(UTC+00:00)

STARLINK 1046 - Pass Details

Date: 12 December 2019
Orbit: 548 x 551 km, 53.0° (Epoch: 25 January)

Event Time Altitude Azimuth Distance (km) Brightness Sun altitude
Exits shadow 04:50:49 25° 139° (SE) 1,213 5.7 -30.1°
Drops below altitude 10° 04:52:44 10° 132° (SE) 1,928 7.0 -29.8°
Sets 04:55:02 0° 129° (SE) 2,829 8.0 -29.4°
